Weather History for Glasgow, United Kingdom

Change the Weather History Date:

Tuesday, March 8, 2011

  Actual Average Record
Temperature  
Mean Temperature 42 °F -  
Max Temperature 46 °F 48 °F 53 °F (2001)
Min Temperature 37 °F 35 °F 24 °F (1999)
Degree Days  
Heating Degree Days 22    
Moisture  
Dew Point 38 °F    
Average Humidity 82    
Maximum Humidity 93    
Minimum Humidity 71    
Precipitation  
Precipitation 0.00 in - - ()
Sea Level Pressure  
Sea Level Pressure 29.85 in    
Wind  
Wind Speed 17 mph ()    
Max Wind Speed 30 mph    
Max Gust Speed 36 mph    
Visibility 5.5 miles    
Events Rain    
Averages and records for this station are not official NWS values.
T = Trace of Precipitation, MM = Missing Value Source: Averaged Metar Reports

Daily Weather History Graph

Daily Weather History Graph

Search for Another Location

Airport:

Trip Planner

Search our weather history database for the weather conditions in past years. The results will help you decide how hot, cold, wet, or windy it might be!

Date:

Astronomy

Mar. 08, 2011 Rise Set
Actual Time 6:52 AM GMT 6:05 PM GMT
Civil Twilight 6:15 AM GMT 6:42 PM GMT
Nautical Twilight 5:32 AM GMT 7:25 PM GMT
Astronomical Twilight 4:48 AM GMT 8:10 PM GMT
Moon 7:15 AM GMT (3/8) 10:48 PM GMT (3/8)
Length of Visible Light 12h 27m
Length of Day
11h 13m
Waxing Crescent, 11% of the Moon is Illuminated
Mar 8
Waxing Crescent
Mar 12
First Quarter
Mar 19
Full
Mar 26
Last Quarter
Apr 3
New

Hourly Weather History & Observations

Time (GMT) Temp. Windchill Dew Point Humidity Pressure Visibility Wind Dir Wind Speed Gust Speed Precip Events Conditions
12:20 AM 39.2 °F 32.0 °F 33.8 °F 81% 30.18 in - SW 11.5 mph - N/A   Clear
12:50 AM 39.2 °F 30.8 °F 33.8 °F 81% 30.15 in 6.2 mi SSW 15.0 mph - N/A   Partly Cloudy
1:20 AM 41.0 °F 33.1 °F 35.6 °F 81% 30.15 in 6.2 mi SSW 15.0 mph - N/A   Partly Cloudy
1:50 AM 41.0 °F 33.1 °F 35.6 °F 81% 30.12 in 6.2 mi SSW 15.0 mph - N/A   Scattered Clouds
2:20 AM 41.0 °F 32.5 °F 35.6 °F 81% 30.09 in 6.2 mi SSW 17.3 mph - N/A   Partly Cloudy
2:50 AM 41.0 °F 33.1 °F 37.4 °F 87% 30.09 in 6.2 mi SSW 15.0 mph - N/A   Mostly Cloudy
3:20 AM 41.0 °F 32.2 °F 37.4 °F 87% 30.06 in 5.0 mi SSW 18.4 mph - N/A   Overcast
3:50 AM 41.0 °F 32.8 °F 37.4 °F 87% 30.06 in 5.0 mi SSW 16.1 mph - N/A   Overcast
4:20 AM 42.8 °F 34.8 °F 37.4 °F 81% 30.04 in 5.0 mi SSW 17.3 mph - N/A   Overcast
4:50 AM 42.8 °F 34.5 °F 39.2 °F 87% 30.04 in 5.0 mi SSW 18.4 mph - N/A   Mostly Cloudy
5:20 AM 42.8 °F 33.8 °F 39.2 °F 87% 30.01 in 5.0 mi SSW 21.9 mph - N/A   Mostly Cloudy
5:50 AM 42.8 °F 34.3 °F 37.4 °F 81% 30.01 in 5.0 mi SW 19.6 mph - N/A   Mostly Cloudy
6:20 AM 42.8 °F 34.3 °F 39.2 °F 87% 29.98 in 5.6 mi SW 19.6 mph - N/A   Mostly Cloudy
6:50 AM 42.8 °F 33.8 °F 37.4 °F 81% 29.98 in 4.3 mi SW 21.9 mph - N/A   Scattered Clouds
7:20 AM 42.8 °F 33.8 °F 37.4 °F 81% 29.95 in 4.3 mi SW 21.9 mph - N/A   Scattered Clouds
7:50 AM 42.8 °F 34.5 °F 37.4 °F 81% 29.95 in 4.3 mi SW 18.4 mph - N/A   Mostly Cloudy
8:20 AM 42.8 °F 33.8 °F 37.4 °F 81% 29.92 in 5.0 mi SW 21.9 mph - N/A   Scattered Clouds
8:50 AM 42.8 °F 34.0 °F 37.4 °F 81% 29.92 in 5.6 mi SW 20.7 mph - N/A   Mostly Cloudy
9:20 AM 44.6 °F 35.5 °F 37.4 °F 76% 29.89 in 6.2 mi SSW 25.3 mph - N/A   Scattered Clouds
9:50 AM 44.6 °F 36.1 °F 37.4 °F 76% 29.89 in 6.2 mi SW 21.9 mph - N/A   Scattered Clouds
10:20 AM 44.6 °F 35.1 °F 37.4 °F 76% 29.86 in 6.2 mi SW 27.6 mph - N/A   Mostly Cloudy
10:50 AM 46.4 °F 38.1 °F 37.4 °F 71% 29.86 in 6.2 mi SW 24.2 mph - N/A   Overcast
11:20 AM 46.4 °F 37.2 °F 37.4 °F 71% 29.83 in 6.2 mi SW 29.9 mph - N/A   Mostly Cloudy
11:50 AM 46.4 °F 37.5 °F 37.4 °F 71% 29.83 in 6.2 mi SW 27.6 mph - N/A   Mostly Cloudy
12:20 PM 44.6 °F 35.7 °F 37.4 °F 76% 29.83 in 5.0 mi SW 24.2 mph - N/A   Mostly Cloudy
12:50 PM 44.6 °F 35.5 °F 39.2 °F 81% 29.80 in 6.2 mi SW 25.3 mph - N/A   Light Drizzle
1:20 PM 44.6 °F 35.5 °F 41.0 °F 87% 29.77 in 4.3 mi SW 25.3 mph - N/A Rain Light Rain
1:50 PM 44.6 °F 35.5 °F 41.0 °F 87% 29.77 in 5.0 mi SW 25.3 mph - N/A Rain Light Rain
2:20 PM 44.6 °F 36.6 °F 41.0 °F 87% 29.74 in - SW 19.6 mph - N/A Rain Light Rain
2:50 PM 44.6 °F 36.4 °F 41.0 °F 87% 29.74 in 3.7 mi SW 20.7 mph - N/A Rain Light Rain
3:20 PM 44.6 °F 36.1 °F 42.8 °F 93% 29.74 in 3.7 mi WSW 21.9 mph - N/A Rain Light Rain
3:50 PM 44.6 °F 37.2 °F 42.8 °F 93% 29.74 in 3.7 mi WSW 17.3 mph - N/A Rain Light Rain
4:20 PM 44.6 °F 38.1 °F 42.8 °F 93% 29.71 in 6.2 mi WSW 13.8 mph - N/A   Mostly Cloudy
4:50 PM 44.6 °F 38.1 °F 41.0 °F 87% 29.71 in 4.3 mi West 13.8 mph - N/A Rain Light Rain
5:20 PM 44.6 °F 38.1 °F 41.0 °F 87% 29.71 in 6.2 mi West 13.8 mph - N/A   Mostly Cloudy
5:50 PM 44.6 °F 37.4 °F 41.0 °F 87% 29.68 in 6.2 mi WSW 16.1 mph - N/A   Mostly Cloudy
6:20 PM 44.6 °F 37.8 °F 39.2 °F 81% 29.71 in 6.2 mi West 15.0 mph - N/A   Mostly Cloudy
6:50 PM 44.6 °F 37.4 °F 39.2 °F 81% 29.68 in 6.2 mi WSW 16.1 mph - N/A   Mostly Cloudy
7:20 PM 44.6 °F 36.9 °F 39.2 °F 81% 29.68 in 6.2 mi WSW 18.4 mph 29.9 mph N/A Rain Light Rain
7:50 PM 42.8 °F 34.5 °F 37.4 °F 81% 29.68 in 6.2 mi WSW 18.4 mph - N/A   Scattered Clouds
8:20 PM 42.8 °F 34.5 °F 35.6 °F 76% 29.68 in 6.2 mi WSW 18.4 mph - N/A   Partly Cloudy
8:50 PM 42.8 °F 34.8 °F 35.6 °F 76% 29.65 in 6.2 mi WSW 17.3 mph - N/A   Partly Cloudy
9:20 PM 42.8 °F 35.1 °F 35.6 °F 76% 29.65 in 5.0 mi WSW 16.1 mph - N/A Rain Rain Showers
9:50 PM 41.0 °F 33.1 °F 35.6 °F 81% 29.65 in 6.2 mi WSW 15.0 mph - N/A Rain Light Rain Showers
10:20 PM 41.0 °F 32.5 °F 35.6 °F 81% 29.65 in 6.2 mi WSW 17.3 mph - N/A   Mostly Cloudy
10:50 PM 41.0 °F 32.5 °F 35.6 °F 81% 29.62 in 6.2 mi SW 17.3 mph - N/A   Mostly Cloudy
11:20 PM 39.2 °F 29.3 °F 33.8 °F 81% 29.62 in 6.2 mi SW 20.7 mph - N/A   Light Drizzle
11:50 PM 37.4 °F 26.1 °F 33.8 °F 87% 29.62 in 6.2 mi WSW 24.2 mph 35.7 mph N/A Rain Light Rain